QPF
0.05 0.06 0.08 0.09 0.09 0.07 0.07 0.07 0.06 0.05 0.05 0.05 0.06 0.06 0.06 0.05 0.04 0.04 0.04 0.04 0.04 0.05 0.06 0.06 0.05 0.06 0.05 0.06 0.07 0.08 0.10 0.12 0.10 0.06 0.07 0.11 0.12 0.13 0.14 0.14 0.12 0.10 0.11
0.08 0.07 0.07 0.11 0.11 0.11 0.12 0.12 0.10 0.08 0.08 0.07 0.07 0.06 0.05 0.05 0.04 0.04 0.04 0.03 0.04 0.05 0.05 0.05 0.04 0.04 0.03 0.04 0.05 0.06 0.08 0.11 0.11 0.10 0.08 0.08 0.13 0.13 0.12 0.12 0.10 0.10 0.11
0.10 0.10 0.10 0.10 0.10 0.13 0.15 0.13 0.10 0.09 0.09 0.08 0.07 0.07 0.07 0.06 0.06 0.06 0.06 0.05 0.04 0.03 0.03 0.02 0.02 0.03 0.03 0.03 0.04 0.03 0.04 0.06 0.07 0.08 0.09 0.07 0.11 0.12 0.12 0.13 0.10 0.10 0.12
0.05 0.07 0.09 0.09 0.09 0.09 0.09 0.09 0.07 0.05 0.05 0.06 0.07 0.07 0.06 0.07 0.07 0.08 0.08 0.06 0.05 0.05 0.04 0.03 0.03 0.03 0.02 0.03 0.03 0.03 0.04 0.05 0.06 0.08 0.09 0.10 0.09 0.08 0.10 0.11 0.10 0.10 0.11
0.03 0.03 0.03 0.03 0.03 0.05 0.06 0.06 0.05 0.05 0.05 0.06 0.06 0.07 0.08 0.09 0.08 0.08 0.07 0.07 0.07 0.06 0.05 0.05 0.04 0.03 0.03 0.03 0.03 0.02 0.04 0.04 0.05 0.06 0.06 0.06 0.06 0.07 0.09 0.11 0.09 0.09 0.11
0.04 0.03 0.02 0.02 0.02 0.03 0.03 0.03 0.04 0.04 0.04 0.05 0.06 0.08 0.08 0.08 0.06 0.05 0.05 0.06 0.06 0.06 0.05 0.04 0.03 0.04 0.03 0.03 0.02 0.02 0.03 0.03 0.04 0.05 0.05 0.05 0.05 0.07 0.06 0.08 0.10 0.09 0.07
0.03 0.03 0.01 0.01 0.01 0.01 0.02 0.02 0.02 0.03 0.04 0.04 0.04 0.05 0.05 0.05 0.04 0.05 0.05 0.04 0.04 0.03 0.03 0.03 0.02 0.03 0.03 0.02 0.02 0.02 0.02 0.03 0.03 0.04 0.04 0.05 0.05 0.06 0.06 0.05 0.08 0.11 0.10
0.03 0.04 0.02 0.01 0.01 0.02 0.02 0.02 0.03 0.04 0.04 0.03 0.03 0.03 0.03 0.02 0.03 0.03 0.04 0.03 0.02 0.03 0.03 0.03 0.03 0.03 0.04 0.03 0.03 0.03 0.02 0.03 0.05 0.04 0.03 0.04 0.06 0.06 0.06 0.05 0.06 0.07 0.07
0.03 0.04 0.04 0.03 0.02 0.02 0.03 0.03 0.04 0.05 0.03 0.03 0.03 0.03 0.03 0.03 0.05 0.05 0.05 0.04 0.03 0.03 0.03 0.03 0.03 0.02 0.03 0.05 0.04 0.04 0.04 0.03 0.04 0.03 0.02 0.03 0.05 0.06 0.08 0.09 0.07 0.07 0.07
0.02 0.02 0.03 0.04 0.04 0.04 0.04 0.04 0.05 0.04 0.03 0.04 0.04 0.05 0.06 0.06 0.07 0.08 0.07 0.06 0.04 0.04 0.04 0.03 0.02 0.02 0.02 0.04 0.03 0.03 0.03 0.02 0.02 0.02 0.02 0.02 0.03 0.04 0.07 0.08 0.08 0.08 0.07
0.02 0.02 0.03 0.03 0.06 0.09 0.07 0.05 0.07 0.08 0.08 0.08 0.08 0.07 0.09 0.10 0.10 0.10 0.09 0.08 0.07 0.07 0.04 0.02 0.02 0.02 0.02 0.03 0.03 0.02 0.02 0.03 0.03 0.03 0.02 0.02 0.02 0.03 0.05 0.06 0.09 0.09 0.08
0.02 0.02 0.02 0.04 0.05 0.08 0.14 0.16 0.20 0.19 0.14 0.10 0.09 0.10 0.10 0.10 0.08 0.08 0.09 0.09 0.08 0.05 0.02 0.01 0.02 0.02 0.03 0.03 0.03 0.03 0.04 0.03 0.03 0.03 0.02 0.02 0.02 0.03 0.04 0.05 0.06 0.07 0.06
0.02 0.03 0.03 0.03 0.03 0.03 0.04 0.08 0.15 0.16 0.15 0.12 0.09 0.08 0.10 0.11 0.10 0.10 0.08 0.05 0.03 0.03 0.02 0.02 0.03 0.03 0.03 0.04 0.04 0.04 0.04 0.03 0.02 0.02 0.03 0.03 0.03 0.03 0.04 0.04 0.05 0.06 0.07
0.03 0.03 0.03 0.03 0.02 0.02 0.02 0.02 0.04 0.06 0.09 0.10 0.07 0.06 0.08 0.08 0.07 0.05 0.02 0.01 0.01 0.01 0.02 0.03 0.03 0.04 0.04 0.04 0.05 0.05 0.04 0.04 0.04 0.04 0.04 0.05 0.04 0.03 0.03 0.03 0.04 0.06 0.08
0.04 0.04 0.04 0.03 0.02 0.02 0.02 0.01 0.02 0.02 0.02 0.03 0.03 0.02 0.02 0.02 0.02 0.02 0.01 0.02 0.02 0.02 0.04 0.04 0.04 0.04 0.05 0.06 0.06 0.06 0.06 0.05 0.05 0.05 0.05 0.05 0.05 0.05 0.04 0.04 0.04 0.05 0.06
0.05 0.05 0.05 0.04 0.04 0.03 0.03 0.02 0.01 0.01 0.01 0.01 0.01 0.01 0.01 0.01 0.01 0.01 0.02 0.02 0.01 0.02 0.02 0.02 0.03 0.03 0.03 0.03 0.03 0.04 0.04 0.05 0.05 0.06 0.05 0.05 0.05 0.04 0.03 0.03 0.03 0.04 0.04
0.06 0.07 0.08 0.07 0.05 0.04 0.03 0.02 0.02 0.01 0.01 0.01 0.00 0.00 0.00 0.00 0.01 0.02 0.02 0.02 0.02 0.01 0.01 0.01 0.02 0.03 0.03 0.03 0.03 0.03 0.03 0.04 0.04 0.05 0.05 0.05 0.04 0.03 0.02 0.02 0.03 0.03 0.03
0.08 0.08 0.08 0.08 0.07 0.07 0.07 0.05 0.03 0.02 0.01 0.01 0.01 0.01 0.01 0.01 0.01 0.01 0.01 0.01 0.01 0.01 0.01 0.02 0.02 0.03 0.03 0.04 0.04 0.04 0.04 0.04 0.04 0.04 0.04 0.05 0.04 0.03 0.03 0.02 0.03 0.03 0.04
0.07 0.06 0.06 0.06 0.07 0.09 0.08 0.06 0.05 0.04 0.03 0.02 0.01 0.01 0.01 0.01 0.01 0.01 0.01 0.01 0.01 0.01 0.01 0.02 0.02 0.04 0.05 0.05 0.04 0.04 0.03 0.03 0.03 0.03 0.03 0.04 0.04 0.03 0.02 0.02 0.02 0.03 0.03
0.05 0.05 0.04 0.04 0.04 0.05 0.04 0.03 0.03 0.03 0.02 0.02 0.01 0.01 0.01 0.00 0.00 0.00 0.00 0.01 0.01 0.02 0.02 0.02 0.03 0.04 0.05 0.04 0.03 0.03 0.03 0.03 0.03 0.04 0.04 0.04 0.05 0.05 0.03 0.03 0.03 0.03 0.03
0.04 0.04 0.04 0.04 0.03 0.03 0.03 0.02 0.02 0.01 0.01 0.01 0.01 0.01 0.00 0.00 0.00 0.00 0.01 0.01 0.01 0.02 0.02 0.03 0.03 0.02 0.02 0.02 0.02 0.02 0.02 0.02 0.02 0.03 0.03 0.04 0.06 0.09 0.09 0.06 0.05 0.04 0.03
0.05 0.05 0.04 0.03 0.03 0.03 0.02 0.02 0.02 0.01 0.01 0.01 0.00 0.00 0.00 0.00 0.01 0.01 0.01 0.01 0.01 0.01 0.01 0.01 0.01 0.02 0.02 0.02 0.02 0.02 0.03 0.03 0.03 0.03 0.04 0.06 0.07 0.07 0.11 0.14 0.12 0.07 0.04
0.02 0.02 0.01 0.01 0.01 0.01 0.01 0.01 0.01 0.01 0.01 0.01 0.01 0.01 0.01 0.01 0.01 0.01 0.01 0.01 0.01 0.01 0.01 0.01 0.02 0.02 0.02 0.02 0.02 0.03 0.03 0.03 0.03 0.04 0.05 0.06 0.05 0.05 0.07 0.09 0.13 0.13 0.09
0.01 0.01 0.01 0.01 0.01 0.01 0.01 0.01 0.01 0.01 0.01 0.01 0.01 0.01 0.01 0.02 0.02 0.02 0.03 0.03 0.03 0.02 0.02 0.02 0.03 0.03 0.03 0.02 0.02 0.02 0.02 0.02 0.03 0.04 0.05 0.06 0.06 0.05 0.05 0.05 0.06 0.08 0.10
0.02 0.01 0.01 0.01 0.01 0.01 0.01 0.01 0.01 0.01 0.01 0.01 0.01 0.01 0.02 0.02 0.02 0.02 0.02 0.01 0.01 0.02 0.02 0.02 0.03 0.03 0.02 0.02 0.02 0.03 0.03 0.04 0.04 0.04 0.05 0.07 0.07 0.06 0.06 0.06 0.05 0.04 0.05
0.02 0.02 0.01 0.01 0.01 0.01 0.01 0.01 0.01 0.01 0.01 0.01 0.02 0.02 0.03 0.03 0.02 0.02 0.02 0.02 0.02 0.02 0.03 0.03 0.03 0.03 0.04 0.04 0.03 0.03 0.03 0.04 0.04 0.04 0.05 0.06 0.08 0.08 0.06 0.05 0.03 0.03 0.03
MSLP
1008.79 1009.28 1009.80 1010.29 1010.71 1011.01 1011.22 1011.37 1011.47 1011.59 1011.75 1011.96 1012.22 1012.49 1012.75 1012.96 1013.11 1013.19 1013.21 1013.21 1013.21 1013.25 1013.33 1013.47 1013.65 1013.84 1014.01 1014.13 1014.19 1014.16 1014.05 1013.86 1013.61 1013.33 1013.01 1012.69 1012.36 1012.04 1011.74 1011.48 1011.27 1011.13 1011.08
1008.43 1008.94 1009.47 1009.98 1010.40 1010.73 1010.97 1011.15 1011.29 1011.44 1011.61 1011.83 1012.08 1012.35 1012.58 1012.78 1012.91 1012.97 1012.98 1012.96 1012.94 1012.96 1013.02 1013.14 1013.30 1013.48 1013.67 1013.82 1013.92 1013.95 1013.91 1013.81 1013.66 1013.45 1013.21 1012.93 1012.64 1012.33 1012.03 1011.75 1011.51 1011.33 1011.23
1008.11 1008.67 1009.24 1009.76 1010.21 1010.56 1010.82 1011.02 1011.19 1011.36 1011.55 1011.77 1012.01 1012.25 1012.46 1012.62 1012.72 1012.75 1012.73 1012.68 1012.63 1012.62 1012.66 1012.75 1012.90 1013.07 1013.26 1013.43 1013.57 1013.66 1013.69 1013.67 1013.59 1013.47 1013.30 1013.09 1012.85 1012.57 1012.29 1012.00 1011.74 1011.53 1011.38
1007.82 1008.44 1009.05 1009.60 1010.06 1010.43 1010.71 1010.93 1011.12 1011.30 1011.51 1011.72 1011.95 1012.16 1012.34 1012.46 1012.51 1012.50 1012.44 1012.35 1012.27 1012.23 1012.24 1012.32 1012.44 1012.61 1012.80 1012.98 1013.15 1013.27 1013.36 1013.40 1013.39 1013.34 1013.24 1013.10 1012.91 1012.69 1012.44 1012.17 1011.91 1011.68 1011.49
1007.54 1008.22 1008.86 1009.43 1009.90 1010.27 1010.56 1010.79 1010.99 1011.19 1011.40 1011.61 1011.82 1012.01 1012.15 1012.22 1012.22 1012.16 1012.06 1011.94 1011.83 1011.77 1011.76 1011.82 1011.93 1012.10 1012.28 1012.47 1012.65 1012.80 1012.91 1012.99 1013.03 1013.03 1013.00 1012.92 1012.80 1012.64 1012.44 1012.22 1011.98 1011.74 1011.53
1007.26 1007.97 1008.63 1009.20 1009.66 1010.02 1010.30 1010.53 1010.74 1010.94 1011.15 1011.36 1011.55 1011.71 1011.81 1011.84 1011.80 1011.70 1011.56 1011.41 1011.28 1011.20 1011.19 1011.25 1011.36 1011.53 1011.72 1011.91 1012.09 1012.24 1012.36 1012.46 1012.52 1012.56 1012.57 1012.56 1012.50 1012.41 1012.28 1012.11 1011.92 1011.71 1011.50
1007.00 1007.71 1008.35 1008.89 1009.32 1009.65 1009.91 1010.12 1010.33 1010.53 1010.73 1010.93 1011.11 1011.24 1011.31 1011.31 1011.23 1011.09 1010.93 1010.76 1010.63 1010.56 1010.55 1010.62 1010.75 1010.92 1011.12 1011.31 1011.49 1011.64 1011.75 1011.85 1011.92 1011.98 1012.02 1012.05 1012.06 1012.05 1011.99 1011.90 1011.77 1011.60 1011.42
1006.82 1007.49 1008.07 1008.54 1008.91 1009.18 1009.40 1009.60 1009.78 1009.97 1010.17 1010.36 1010.52 1010.63 1010.67 1010.63 1010.53 1010.37 1010.20 1010.03 1009.91 1009.86 1009.88 1009.98 1010.14 1010.33 1010.54 1010.74 1010.91 1011.05 1011.16 1011.24 1011.30 1011.36 1011.43 1011.50 1011.57 1011.62 1011.64 1011.63 1011.58 1011.48 1011.34
1006.76 1007.35 1007.84 1008.22 1008.50 1008.71 1008.88 1009.04 1009.20 1009.37 1009.56 1009.73 1009.88 1009.96 1009.98 1009.92 1009.79 1009.63 1009.45 1009.30 1009.20 1009.18 1009.24 1009.38 1009.58 1009.81 1010.04 1010.26 1010.43 1010.56 1010.65 1010.72 1010.77 1010.83 1010.91 1011.00 1011.12 1011.23 1011.33 1011.40 1011.43 1011.40 1011.32
1006.88 1007.35 1007.73 1008.01 1008.20 1008.34 1008.46 1008.58 1008.71 1008.87 1009.04 1009.19 1009.31 1009.37 1009.36 1009.28 1009.14 1008.97 1008.80 1008.67 1008.61 1008.63 1008.73 1008.92 1009.16 1009.42 1009.68 1009.91 1010.09 1010.22 1010.30 1010.36 1010.40 1010.46 1010.54 1010.65 1010.80 1010.96 1011.12 1011.26 1011.36 1011.41 1011.39
1007.16 1007.51 1007.78 1007.96 1008.07 1008.16 1008.23 1008.32 1008.44 1008.57 1008.72 1008.85 1008.95 1008.98 1008.95 1008.84 1008.69 1008.52 1008.36 1008.25 1008.21 1008.27 1008.41 1008.64 1008.91 1009.21 1009.50 1009.74 1009.93 1010.06 1010.14 1010.19 1010.23 1010.29 1010.37 1010.50 1010.66 1010.86 1011.06 1011.26 1011.42 1011.52 1011.56
1007.58 1007.82 1007.99 1008.10 1008.16 1008.21 1008.26 1008.33 1008.44 1008.56 1008.69 1008.80 1008.86 1008.87 1008.81 1008.68 1008.52 1008.34 1008.19 1008.10 1008.08 1008.16 1008.33 1008.58 1008.88 1009.19 1009.49 1009.75 1009.95 1010.08 1010.17 1010.22 1010.26 1010.32 1010.40 1010.53 1010.71 1010.92 1011.15 1011.38 1011.58 1011.73 1011.82
1008.06 1008.23 1008.33 1008.40 1008.44 1008.47 1008.53 1008.61 1008.71 1008.83 1008.94 1009.03 1009.06 1009.04 1008.95 1008.81 1008.64 1008.46 1008.31 1008.22 1008.21 1008.30 1008.48 1008.73 1009.02 1009.34 1009.63 1009.89 1010.09 1010.23 1010.33 1010.38 1010.43 1010.49 1010.59 1010.72 1010.90 1011.11 1011.35 1011.58 1011.80 1011.98 1012.11
1008.53 1008.65 1008.73 1008.79 1008.84 1008.89 1008.97 1009.07 1009.18 1009.30 1009.40 1009.47 1009.48 1009.43 1009.32 1009.16 1008.98 1008.80 1008.65 1008.57 1008.56 1008.64 1008.80 1009.03 1009.30 1009.59 1009.87 1010.11 1010.30 1010.44 1010.54 1010.61 1010.68 1010.75 1010.85 1010.98 1011.16 1011.37 1011.60 1011.83 1012.05 1012.24 1012.39
1008.91 1009.01 1009.10 1009.18 1009.26 1009.36 1009.47 1009.59 1009.72 1009.84 1009.93 1009.98 1009.97 1009.90 1009.78 1009.62 1009.44 1009.26 1009.12 1009.03 1009.01 1009.07 1009.21 1009.40 1009.62 1009.87 1010.10 1010.31 1010.49 1010.63 1010.74 1010.82 1010.90 1011.00 1011.11 1011.25 1011.43 1011.62 1011.84 1012.06 1012.27 1012.46 1012.62
1009.17 1009.28 1009.38 1009.50 1009.62 1009.76 1009.90 1010.05 1010.18 1010.30 1010.38 1010.41 1010.38 1010.30 1010.18 1010.02 1009.85 1009.69 1009.56 1009.47 1009.45 1009.48 1009.58 1009.72 1009.89 1010.07 1010.26 1010.43 1010.58 1010.71 1010.83 1010.94 1011.04 1011.16 1011.30 1011.46 1011.63 1011.83 1012.04 1012.24 1012.44 1012.63 1012.78
1009.32 1009.43 1009.56 1009.70 1009.85 1010.01 1010.17 1010.33 1010.45 1010.55 1010.61 1010.62 1010.58 1010.50 1010.38 1010.24 1010.09 1009.95 1009.84 1009.76 1009.73 1009.75 1009.80 1009.89 1010.00 1010.13 1010.26 1010.39 1010.52 1010.65 1010.77 1010.90 1011.04 1011.20 1011.37 1011.55 1011.75 1011.95 1012.15 1012.35 1012.54 1012.72 1012.88
1009.38 1009.48 1009.61 1009.76 1009.92 1010.08 1010.23 1010.36 1010.46 1010.53 1010.55 1010.54 1010.48 1010.40 1010.29 1010.17 1010.05 1009.95 1009.86 1009.80 1009.77 1009.77 1009.79 1009.83 1009.89 1009.97 1010.05 1010.15 1010.26 1010.39 1010.53 1010.69 1010.88 1011.08 1011.29 1011.51 1011.73 1011.96 1012.17 1012.37 1012.56 1012.74 1012.90
1009.39 1009.47 1009.58 1009.70 1009.84 1009.96 1010.08 1010.16 1010.21 1010.23 1010.21 1010.16 1010.08 1009.99 1009.89 1009.79 1009.71 1009.63 1009.58 1009.54 1009.51 1009.50 1009.50 1009.51 1009.53 1009.56 1009.61 1009.69 1009.79 1009.93 1010.10 1010.30 1010.53 1010.78 1011.04 1011.31 1011.58 1011.83 1012.07 1012.29 1012.49 1012.67 1012.84
1009.38 1009.42 1009.48 1009.55 1009.63 1009.70 1009.74 1009.76 1009.74 1009.70 1009.62 1009.53 1009.42 1009.32 1009.22 1009.14 1009.08 1009.03 1009.00 1008.97 1008.96 1008.94 1008.92 1008.91 1008.90 1008.91 1008.94 1009.00 1009.11 1009.27 1009.47 1009.71 1009.99 1010.30 1010.62 1010.94 1011.25 1011.55 1011.82 1012.06 1012.29 1012.49 1012.68
1009.35 1009.32 1009.32 1009.33 1009.33 1009.33 1009.29 1009.23 1009.14 1009.03 1008.89 1008.75 1008.61 1008.49 1008.39 1008.31 1008.25 1008.21 1008.19 1008.17 1008.15 1008.13 1008.10 1008.06 1008.04 1008.04 1008.06 1008.13 1008.25 1008.43 1008.67 1008.95 1009.28 1009.64 1010.01 1010.38 1010.74 1011.08 1011.39 1011.67 1011.93 1012.16 1012.37
1009.27 1009.18 1009.11 1009.05 1008.98 1008.90 1008.79 1008.66 1008.50 1008.32 1008.13 1007.94 1007.77 1007.62 1007.49 1007.40 1007.33 1007.29 1007.26 1007.23 1007.19 1007.15 1007.11 1007.07 1007.03 1007.02 1007.05 1007.12 1007.26 1007.46 1007.72 1008.04 1008.40 1008.80 1009.21 1009.62 1010.02 1010.40 1010.75 1011.08 1011.38 1011.65 1011.90
1009.11 1008.96 1008.84 1008.72 1008.60 1008.46 1008.30 1008.11 1007.90 1007.68 1007.44 1007.22 1007.01 1006.82 1006.67 1006.55 1006.45 1006.38 1006.32 1006.26 1006.21 1006.14 1006.08 1006.01 1005.97 1005.95 1005.97 1006.05 1006.20 1006.41 1006.68 1007.02 1007.40 1007.81 1008.24 1008.67 1009.10 1009.51 1009.90 1010.26 1010.61 1010.93 1011.23
1008.84 1008.67 1008.51 1008.37 1008.22 1008.05 1007.86 1007.65 1007.42 1007.17 1006.91 1006.66 1006.42 1006.21 1006.02 1005.86 1005.73 1005.62 1005.51 1005.41 1005.32 1005.22 1005.12 1005.04 1004.97 1004.94 1004.96 1005.03 1005.17 1005.37 1005.64 1005.96 1006.32 1006.72 1007.15 1007.58 1008.01 1008.43 1008.84 1009.25 1009.64 1010.02 1010.38
1008.50 1008.33 1008.17 1008.02 1007.87 1007.71 1007.53 1007.32 1007.09 1006.84 1006.58 1006.32 1006.07 1005.83 1005.62 1005.42 1005.25 1005.08 1004.93 1004.79 1004.64 1004.50 1004.37 1004.26 1004.16 1004.11 1004.10 1004.15 1004.26 1004.43 1004.66 1004.94 1005.26 1005.62 1006.00 1006.40 1006.81 1007.22 1007.65 1008.08 1008.51 1008.95 1009.38
1008.15 1008.00 1007.87 1007.74 1007.62 1007.48 1007.33 1007.15 1006.94 1006.72 1006.47 1006.22 1005.97 1005.72 1005.49 1005.26 1005.05 1004.84 1004.64 1004.45 1004.26 1004.07 1003.90 1003.75 1003.63 1003.54 1003.49 1003.50 1003.56 1003.67 1003.83 1004.04 1004.29 1004.57 1004.88 1005.22 1005.58 1005.97 1006.39 1006.83 1007.30 1007.79 1008.28
Thickness
5779 5778 5776 5773 5771 5769 5766 5764 5763 5762 5760 5758 5756 5755 5753 5751 5749 5746 5744 5742 5739 5738 5736 5734 5733 5732 5730 5729 5728 5727 5725 5721 5717 5720 5722 5723 5722 5721 5720 5719 5719 5718 5717
5777 5774 5772 5769 5767 5765 5762 5760 5759 5757 5756 5754 5752 5749 5747 5745 5743 5740 5738 5736 5734 5731 5729 5728 5727 5726 5724 5723 5722 5721 5720 5718 5715 5712 5714 5715 5715 5715 5715 5713 5713 5713 5712
5773 5770 5766 5763 5761 5759 5758 5757 5755 5753 5751 5749 5746 5744 5741 5739 5737 5735 5732 5730 5728 5726 5724 5722 5721 5719 5717 5717 5716 5715 5714 5714 5712 5709 5708 5708 5708 5708 5706 5706 5707 5707 5707
5769 5765 5761 5759 5757 5755 5753 5752 5749 5747 5745 5742 5740 5738 5736 5734 5732 5729 5726 5725 5722 5720 5719 5717 5716 5714 5712 5711 5710 5709 5708 5706 5705 5703 5701 5701 5701 5701 5699 5697 5697 5698 5699
5764 5760 5757 5756 5753 5750 5747 5745 5743 5741 5739 5737 5734 5732 5730 5728 5725 5722 5720 5719 5715 5713 5712 5711 5710 5710 5708 5707 5705 5703 5701 5699 5697 5695 5694 5693 5692 5692 5691 5692 5690 5691 5691
5757 5754 5752 5749 5746 5743 5741 5738 5735 5733 5731 5729 5727 5724 5722 5721 5719 5717 5714 5711 5708 5706 5704 5704 5703 5702 5701 5700 5699 5698 5696 5693 5690 5688 5687 5685 5685 5686 5686 5686 5683 5681 5680
5752 5749 5746 5743 5739 5736 5734 5730 5727 5724 5722 5719 5718 5716 5714 5712 5711 5708 5706 5703 5700 5698 5697 5695 5695 5695 5693 5692 5691 5691 5690 5689 5687 5684 5681 5680 5680 5681 5680 5679 5677 5675 5674
5745 5742 5739 5736 5733 5729 5726 5722 5719 5717 5713 5711 5710 5708 5706 5704 5702 5699 5697 5694 5692 5690 5689 5687 5685 5685 5685 5683 5682 5681 5681 5681 5680 5679 5678 5677 5678 5677 5676 5675 5673 5670 5670
5736 5734 5732 5729 5725 5721 5718 5715 5712 5709 5706 5704 5702 5700 5697 5695 5694 5691 5688 5684 5682 5680 5680 5679 5678 5676 5676 5675 5673 5672 5671 5672 5674 5673 5673 5672 5672 5671 5670 5667 5664 5661 5659
5729 5727 5725 5722 5718 5714 5710 5707 5704 5701 5698 5695 5693 5691 5688 5685 5684 5682 5679 5675 5672 5671 5671 5670 5669 5668 5667 5665 5663 5662 5661 5663 5663 5663 5663 5663 5663 5663 5662 5660 5657 5653 5650
5723 5720 5716 5713 5709 5706 5702 5699 5696 5692 5689 5686 5683 5681 5678 5676 5674 5672 5670 5666 5663 5661 5660 5660 5660 5659 5658 5657 5655 5653 5653 5654 5653 5652 5652 5652 5652 5652 5651 5651 5650 5647 5643
5714 5711 5707 5703 5701 5698 5693 5689 5686 5683 5679 5675 5672 5670 5669 5666 5665 5662 5660 5658 5656 5653 5652 5652 5651 5650 5649 5647 5646 5646 5645 5644 5642 5641 5641 5641 5641 5641 5641 5641 5641 5640 5639
5705 5701 5698 5694 5691 5688 5684 5680 5676 5672 5669 5665 5662 5659 5657 5655 5653 5652 5650 5649 5647 5645 5643 5643 5642 5641 5640 5638 5638 5637 5635 5634 5632 5630 5630 5630 5631 5631 5632 5632 5632 5631 5630
5696 5692 5688 5684 5681 5677 5674 5670 5666 5662 5658 5655 5652 5649 5646 5644 5642 5641 5639 5638 5637 5635 5633 5633 5633 5631 5630 5629 5628 5626 5625 5623 5622 5621 5621 5621 5620 5621 5621 5621 5620 5620 5618
5686 5683 5680 5675 5671 5667 5664 5660 5658 5655 5652 5648 5644 5642 5638 5635 5634 5632 5629 5628 5626 5624 5623 5622 5621 5620 5618 5618 5617 5616 5615 5614 5612 5612 5611 5610 5609 5609 5609 5609 5608 5608 5607
5677 5673 5670 5666 5661 5658 5654 5650 5648 5646 5644 5642 5639 5635 5632 5629 5627 5624 5622 5621 5618 5616 5613 5611 5610 5609 5607 5607 5606 5605 5605 5604 5603 5602 5600 5600 5598 5598 5598 5597 5597 5596 5595
5667 5663 5660 5657 5653 5648 5645 5641 5636 5635 5634 5632 5629 5626 5623 5620 5618 5615 5613 5612 5610 5607 5603 5602 5600 5599 5598 5598 5596 5595 5594 5594 5593 5592 5591 5590 5589 5588 5587 5586 5586 5585 5585
5657 5654 5651 5647 5644 5640 5637 5633 5629 5625 5621 5619 5618 5616 5614 5611 5609 5607 5604 5601 5599 5597 5594 5593 5592 5591 5590 5589 5587 5586 5585 5584 5583 5582 5581 5580 5580 5578 5577 5576 5575 5575 5574
5648 5644 5641 5638 5635 5632 5628 5625 5622 5618 5614 5610 5607 5605 5604 5602 5600 5598 5595 5591 5589 5587 5586 5584 5583 5582 5581 5580 5578 5577 5576 5575 5574 5572 5571 5571 5569 5568 5568 5567 5566 5565 5565
5638 5637 5633 5629 5626 5623 5619 5616 5612 5609 5605 5602 5600 5597 5595 5593 5590 5588 5585 5582 5580 5579 5577 5576 5575 5573 5572 5570 5569 5568 5566 5565 5564 5563 5562 5562 5561 5560 5559 5559 5558 5557 5556
5629 5626 5626 5622 5617 5614 5610 5607 5604 5601 5598 5595 5593 5592 5589 5585 5583 5580 5577 5575 5572 5571 5569 5567 5566 5564 5563 5561 5560 5559 5557 5556 5554 5554 5553 5553 5552 5552 5552 5551 5550 5550 5549
5620 5617 5615 5612 5609 5605 5602 5599 5597 5594 5590 5588 5585 5583 5581 5578 5575 5573 5570 5568 5566 5565 5563 5561 5559 5557 5555 5554 5552 5550 5549 5547 5546 5546 5545 5544 5544 5544 5544 5543 5542 5542 5541
5611 5608 5605 5603 5600 5598 5595 5592 5589 5586 5583 5580 5578 5575 5572 5570 5567 5565 5563 5561 5559 5558 5556 5554 5552 5550 5549 5547 5545 5543 5542 5541 5540 5540 5538 5537 5537 5536 5536 5535 5535 5533 5533
5603 5600 5597 5595 5592 5589 5586 5583 5580 5578 5575 5573 5570 5568 5565 5562 5560 5558 5556 5554 5552 5550 5549 5547 5545 5544 5542 5540 5539 5537 5536 5535 5535 5534 5533 5532 5531 5530 5529 5529 5528 5527 5525
5595 5593 5590 5586 5584 5581 5578 5575 5573 5570 5568 5566 5563 5560 5556 5554 5551 5549 5547 5545 5544 5542 5541 5539 5538 5536 5535 5533 5532 5530 5530 5529 5528 5528 5526 5525 5525 5524 5523 5523 5521 5520 5519
5588 5585 5582 5579 5576 5574 5571 5568 5565 5562 5560 5557 5554 5551 5548 5545 5543 5541 5539 5536 5534 5533 5532 5530 5528 5527 5526 5525 5524 5524 5523 5523 5523 5522 5520 5519 5519 5518 5517 5516 5516 5515 5514